Terminal Aerodrome Forecast
Issued by NWS

Home | Current Version | Previous Version | Text Only | Print | Product List | Glossary On
Versions: 1 2 3 4 5 6 7 8 9 10 11 12 13 14 15 16 17 18 19 20 21 22 23 24 25 26 27 28 29 30 31 32 33 34 35 36 37 38 39 40 41 42 43 44 45 46 47 48 49 50
000
FTAK31 PANC 030311 CCA
TAFASN
TAF COR
PASN 030311Z 0303/0324 08015KT P6SM OVC010
     FM030600 08015KT 5SM BR OVC008
     FM031000 07017KT 2SM BR OVC004
     FM032100 06019KT P6SM OVC010=

USA.gov is the U.S. government's official web portal to all federal, state and local government web resources and services.